TVF8858 LFPO-DTTA

Flight info

Callsign TVF8858
Flight time N/A
Altitude 37000
Route LATRA DCT LAMUT DCT UTUVA DCT TITVA DCT NOQAS DCT OTROT DCT RETNO DCT KOLON DCT LOKDU DCT PELOS DCT IPROM DCT CAR/N0395F190 P161 MEDAR
Aircraft B738/M-SDE2E3FGHIRWXY/LB1

Departure

Time N/A
Airport Paris-Orly Airport (LFPO)

Arrival

Time 2026-04-28 21:52
Airport Tunis Carthage International Airport (DTTA)
Time Latitude Longitude Altitude Speed Heading
2026-04-28 21:26 38.83420 9.71151 32523 ft 437 kts 154°
2026-04-28 21:26 38.80784 9.73079 32065 ft 433 kts 154°
2026-04-28 21:26 38.78179 9.74982 31612 ft 429 kts 154°
2026-04-28 21:26 38.75600 9.76865 31168 ft 426 kts 154°
2026-04-28 21:27 38.73031 9.78737 30715 ft 422 kts 153°
2026-04-28 21:27 38.70491 9.80588 30272 ft 419 kts 153°
2026-04-28 21:27 38.67965 9.82426 29834 ft 416 kts 153°
2026-04-28 21:27 38.65457 9.84251 29394 ft 412 kts 153°
2026-04-28 21:28 38.62977 9.86054 28940 ft 409 kts 153°
2026-04-28 21:28 38.60512 9.87846 28488 ft 406 kts 153°
2026-04-28 21:28 38.58069 9.89621 28036 ft 403 kts 153°
2026-04-28 21:28 38.55668 9.91365 27593 ft 401 kts 153°
2026-04-28 21:29 38.53254 9.93116 27141 ft 398 kts 153°
2026-04-28 21:29 38.50855 9.94857 26697 ft 395 kts 153°
2026-04-28 21:29 38.48469 9.96584 26251 ft 392 kts 153°
2026-04-28 21:29 38.46103 9.98294 25826 ft 390 kts 153°
2026-04-28 21:30 38.43739 10.00001 25361 ft 389 kts 153°
2026-04-28 21:30 38.41393 10.01693 24934 ft 387 kts 153°
2026-04-28 21:30 38.39051 10.03381 24504 ft 386 kts 153°
2026-04-28 21:30 38.36719 10.05063 24056 ft 384 kts 153°
2026-04-28 21:31 38.34398 10.06736 23623 ft 382 kts 153°
2026-04-28 21:31 38.32087 10.08400 23190 ft 381 kts 153°
2026-04-28 21:31 38.29777 10.10060 22752 ft 380 kts 153°
2026-04-28 21:31 38.27476 10.11714 22324 ft 379 kts 153°
2026-04-28 21:32 38.25185 10.13361 21893 ft 377 kts 153°
2026-04-28 21:32 38.22904 10.14999 21465 ft 376 kts 153°
2026-04-28 21:32 38.20632 10.16629 21039 ft 374 kts 153°
2026-04-28 21:32 38.18400 10.18229 20620 ft 372 kts 153°
2026-04-28 21:33 38.16148 10.19843 20196 ft 370 kts 153°
2026-04-28 21:33 38.13908 10.21448 19776 ft 368 kts 153°
2026-04-28 21:33 38.11682 10.23041 19355 ft 366 kts 153°
2026-04-28 21:33 38.09466 10.24625 18940 ft 364 kts 153°
2026-04-28 21:34 38.07263 10.26198 18530 ft 362 kts 153°
2026-04-28 21:34 38.05017 10.27594 18108 ft 357 kts 163°
2026-04-28 21:34 38.02628 10.28359 17604 ft 353 kts 174°
2026-04-28 21:34 38.00205 10.28519 17078 ft 351 kts 184°
2026-04-28 21:35 37.97768 10.28405 16632 ft 349 kts 185°
2026-04-28 21:35 37.95350 10.28268 16217 ft 346 kts 185°
2026-04-28 21:35 37.92954 10.28133 15808 ft 343 kts 185°
2026-04-28 21:35 37.90579 10.28006 15404 ft 340 kts 185°
2026-04-28 21:36 37.88220 10.27885 15011 ft 338 kts 185°
2026-04-28 21:36 37.85879 10.27770 14613 ft 335 kts 185°
2026-04-28 21:36 37.83561 10.27658 14225 ft 332 kts 185°
2026-04-28 21:36 37.81259 10.27550 13836 ft 330 kts 185°
2026-04-28 21:37 37.79003 10.27444 13455 ft 327 kts 184°
2026-04-28 21:37 37.76736 10.27337 13067 ft 325 kts 184°
2026-04-28 21:37 37.74480 10.27233 12687 ft 323 kts 184°
2026-04-28 21:37 37.72243 10.27131 12305 ft 320 kts 184°
2026-04-28 21:38 37.70026 10.27028 11932 ft 317 kts 184°
2026-04-28 21:38 37.67827 10.26927 11557 ft 315 kts 184°
2026-04-28 21:38 37.66381 10.26860 11311 ft 314 kts 184°
2026-04-28 21:38 37.64206 10.26759 10931 ft 311 kts 184°
2026-04-28 21:39 37.62055 10.26657 10568 ft 308 kts 184°
2026-04-28 21:39 37.59937 10.26560 10358 ft 299 kts 184°
2026-04-28 21:39 37.57891 10.26469 10219 ft 289 kts 184°
2026-04-28 21:39 37.55909 10.26379 10096 ft 280 kts 184°
2026-04-28 21:40 37.53993 10.26290 9972 ft 271 kts 184°
2026-04-28 21:40 37.52117 10.26208 9696 ft 269 kts 182°
2026-04-28 21:40 37.50271 10.26271 9521 ft 263 kts 179°
2026-04-28 21:40 37.48452 10.26414 9253 ft 260 kts 178°
2026-04-28 21:41 37.46651 10.26560 8989 ft 258 kts 178°
2026-04-28 21:41 37.44862 10.26700 8715 ft 257 kts 178°
2026-04-28 21:41 37.43080 10.26839 8438 ft 257 kts 178°
2026-04-28 21:41 37.41303 10.26973 8169 ft 255 kts 178°
2026-04-28 21:42 37.39561 10.27102 7897 ft 253 kts 178°
2026-04-28 21:42 37.37781 10.27233 7618 ft 252 kts 177°
2026-04-28 21:42 37.36034 10.27362 7348 ft 251 kts 177°
2026-04-28 21:42 37.34295 10.27489 7077 ft 250 kts 177°
2026-04-28 21:43 37.32587 10.27614 6813 ft 248 kts 177°
2026-04-28 21:43 37.30894 10.27737 6538 ft 240 kts 177°
2026-04-28 21:43 37.29259 10.27852 6291 ft 231 kts 177°
2026-04-28 21:43 37.27677 10.27967 6062 ft 227 kts 177°
2026-04-28 21:44 37.26102 10.28082 5825 ft 226 kts 177°
2026-04-28 21:44 37.24536 10.28194 5567 ft 225 kts 176°
2026-04-28 21:44 37.22970 10.28306 5316 ft 226 kts 176°
2026-04-28 21:44 37.21406 10.28419 5074 ft 225 kts 176°
2026-04-28 21:45 37.19847 10.28534 4829 ft 224 kts 176°
2026-04-28 21:45 37.18294 10.28645 4574 ft 223 kts 176°
2026-04-28 21:45 37.16746 10.28757 4324 ft 222 kts 175°
2026-04-28 21:45 37.15214 10.28866 4104 ft 217 kts 176°
2026-04-28 21:46 37.13726 10.28973 3844 ft 213 kts 175°
2026-04-28 21:46 37.12270 10.29079 3750 ft 205 kts 175°
2026-04-28 21:46 37.10844 10.29181 3762 ft 207 kts 175°
2026-04-28 21:46 37.09408 10.29194 3746 ft 210 kts 183°
2026-04-28 21:47 37.08007 10.28935 3742 ft 196 kts 188°
2026-04-28 21:47 37.06712 10.28610 3743 ft 185 kts 188°
2026-04-28 21:47 37.05449 10.28281 3702 ft 185 kts 190°
2026-04-28 21:47 37.04180 10.27920 3476 ft 187 kts 190°
2026-04-28 21:48 37.02916 10.27583 3238 ft 186 kts 190°
2026-04-28 21:48 37.01660 10.27227 2995 ft 184 kts 189°
2026-04-28 21:48 37.00425 10.26887 2750 ft 181 kts 189°
2026-04-28 21:48 36.99199 10.26551 2514 ft 180 kts 189°
2026-04-28 21:49 36.97985 10.26218 2273 ft 175 kts 188°
2026-04-28 21:49 36.96838 10.25904 2051 ft 165 kts 189°
2026-04-28 21:49 36.95740 10.25580 1857 ft 159 kts 191°
2026-04-28 21:49 36.94712 10.25224 1663 ft 151 kts 192°
2026-04-28 21:50 36.93705 10.24897 1405 ft 147 kts 189°
2026-04-28 21:50 36.92711 10.24663 1217 ft 147 kts 186°
2026-04-28 21:50 36.91690 10.24465 995 ft 150 kts 186°
2026-04-28 21:50 36.90697 10.24196 825 ft 146 kts 191°
2026-04-28 21:51 36.89709 10.23928 659 ft 145 kts 187°
2026-04-28 21:51 36.88719 10.23681 516 ft 146 kts 189°
2026-04-28 21:51 36.87713 10.23400 298 ft 146 kts 189°
2026-04-28 21:51 36.86705 10.23134 95 ft 148 kts 191°
2026-04-28 21:52 36.85746 10.22875 29 ft 124 kts 192°
2026-04-28 21:52 36.85116 10.22702 34 ft 62 kts 193°
2026-04-28 21:52 36.84931 10.22621 32 ft 16 kts 251°
2026-04-28 21:52 36.84961 10.22499 30 ft 12 kts 293°
2026-04-28 21:53 36.84981 10.22412 30 ft 10 kts 257°
2026-04-28 21:53 36.84921 10.22374 30 ft 10 kts 196°
2026-04-28 21:53 36.84870 10.22324 29 ft 10 kts 256°
2026-04-28 21:53 36.84882 10.22242 29 ft 10 kts 282°
2026-04-28 21:54 36.84894 10.22161 29 ft 9 kts 279°
2026-04-28 21:54 36.84892 10.22083 29 ft 9 kts 244°
2026-04-28 21:54 36.84865 10.22015 29 ft 9 kts 269°
2026-04-28 21:54 36.84874 10.21953 29 ft 4 kts 282°
2026-04-28 21:55 36.84875 10.21950 29 ft 0 kts 282°